This demonstration page uses our WeatherBlox Daily Observations layout. Learn more.

Left ArrowRight Arrow

41.55636, -103.73856

Hourly Observations for January 17, 2022

Temp ( °F °C ) Dew Point ( °F °C ) Humidity (%) Winds ( mph kmh ) Pressure ( in mb ) Visibility ( mi km ) Precip ( " mm )
12:58 am 00:58 Clear 31 -0.3 20 -6.4 64 64 SW 21 33 30.01 1016 10 16 0.00 0.00
1:58 am 01:58 Clear 34 1 21 -6.2 59 59 SW 24 39 29.98 1015 10 16 0.00 0.00
2:58 am 02:58 Clear 34 1.3 19 -7 54 54 WSW 14 22 29.97 1015 10 16 0.00 0.00
3:58 am 03:58 Clear 33 0.5 19 -7.4 56 56 WSW 9 15 29.96 1015 10 16 0.00 0.00
4:58 am 04:58 Clear 29 -1.8 18 -7.7 64 64 WSW 10 17 29.99 1016 10 16 0.00 0.00
5:58 am 05:58 Clear 29 -1.4 18 -7.9 62 62 W 12 19 30.00 1016 10 16 0.00 0.00
6:58 am 06:58 Clear 30 -1.3 17 -8.3 59 59 WSW 9 15 30.01 1016 10 16 0.00 0.00
7:58 am 07:58 Sunny 35 1.6 17 -8.3 48 48 WSW 9 15 30.01 1016 10 16 0.00 0.00
8:58 am 08:58 Sunny 42 5.8 17 -8.5 35 35 WNW 12 19 30.01 1016 10 16 0.00 0.00
9:58 am 09:58 Sunny 46 8 16 -9 29 29 WNW 17 28 29.98 1015 10 16 0.00 0.00
10:58 am 10:58 Sunny 50 10.1 17 -8.4 27 27 NW 18 30 29.95 1014 10 16 0.00 0.00
11:58 am 11:58 Sunny 54 12 16 -8.8 23 23 NW 17 28 29.90 1013 10 16 0.00 0.00
12:58 pm 12:58 Sunny 55 12.5 16 -9.1 21 21 WNW 21 33 29.87 1012 10 16 0.00 0.00
1:58 pm 13:58 Mostly Sunny 55 12.7 15 -9.4 21 21 WNW 22 35 29.85 1011 10 16 0.00 0.00
2:58 pm 14:58 Sunny 49 9.5 18 -7.7 29 29 W 10 17 29.87 1012 10 16 0.00 0.00
3:58 pm 15:58 Mostly Sunny 50 9.8 17 -8.4 27 27 W 10 17 29.88 1012 10 16 0.00 0.00
4:58 pm 16:58 Clear 46 7.7 16 -8.8 30 30 WNW 10 17 29.89 1012 10 16 0.00 0.00
5:58 pm 17:58 Clear 42 5.6 17 -8.3 36 36 W 13 20 29.91 1013 10 16 0.00 0.00
6:58 pm 18:58 Clear 40 4.2 19 -7.1 44 44 W 9 15 29.93 1014 10 16 0.00 0.00
7:58 pm 19:58 Partly Cloudy 38 3.3 20 -6.7 48 48 WSW 9 15 29.91 1013 10 16 0.00 0.00
8:58 pm 20:58 Mostly Cloudy 38 3.3 19 -7.3 46 46 SW 5 7 29.89 1012 10 16 0.00 0.00
9:58 pm 21:58 Clear 42 5.6 18 -8 37 37 W 10 17 29.84 1010 10 16 0.00 0.00
10:58 pm 22:58 Mostly Cloudy 42 5.5 17 -8.2 37 37 W 5 7 29.83 1010 10 16 0.00 0.00
11:58 pm 23:58 Partly Cloudy 38 3.5 19 -7.3 45 45 SW 5 7 29.80 1009 10 16 0.00 0.00

Powered by AerisWeather